[[{"header":{"parameterUnit":"m.s-1","parameterCategory":1,"la1":30.2991,"la2":30.254,"lo1":-89.0895,"lo2":-89.0444,"dy":0.0017,"dx":0.0017,"nx":28,"ny":28,"refTime":"2025-05-23T09:00:00:Z","depth":0,"parameterNumber":2,"parameterNumberName":"U-component_of_WINDS"},"data":[0,0,0,0,0,0,0,0,0,0,0,0,0,0,0,0,0,0,0,0,0,0,0,0,0,0,0,0,0,0,0,0,0,0,0,0,0,0,0,0,0,0,0,0,0,0,0,0,0,0,0,0,0,0,0,0,0,0,1.7016,1.7016,0,1.7053,1.7054,1.7054,1.7022,1.7021,1.7019,1.7018,1.7059,1.7061,1.7063,0,0,0,0,0,0,0,0,0,0,0,0,0,1.6917,1.6919,1.7016,1.7017,1.7017,1.7053,1.7054,1.7054,1.7022,1.7021,1.7019,1.7018,1.7058,1.7061,1.7063,0,0,0,0,0,0,0,0,0,0,0,0,0,1.6958,1.692,1.7016,1.7005,1.7005,1.7053,1.7054,1.7054,1.7023,1.7021,1.7019,1.7017,1.7057,1.706,1.7064,1.7125,0,0,1.7074,1.7076,0,0,0,0,0,0,0,0,1.6956,1.6962,1.7006,1.7006,1.7006,1.7031,1.7034,1.7078,1.7023,1.7016,1.7018,1.7016,1.7051,1.7055,1.7067,1.7127,1.7129,1.7075,1.7077,1.7078,1.7079,0,0,0,0,0,0,0,1.6953,1.696,1.7031,1.7007,1.7007,1.6999,1.7002,1.7042,1.7044,1.7016,1.7014,1.7019,1.7051,1.7063,1.7067,1.713,1.7075,1.7078,1.708,1.7081,1.724,1.7242,0,0,0,0,0,0,1.6951,1.6958,1.703,1.7032,1.6975,1.7002,1.7006,1.7025,1.7044,1.7045,1.7021,1.7017,1.7058,1.7063,1.7069,1.714,1.7078,1.7082,1.7084,1.7238,1.724,1.7242,0,0,0,0,0,0,1.6949,1.6958,1.7028,1.6994,1.7003,1.7006,1.7027,1.7027,1.7039,1.7047,1.7047,1.7033,1.7057,1.7064,1.7111,1.7141,1.7083,1.7086,1.7235,1.7238,1.7241,1.7284,0,0,0,0,0,0,1.6946,1.6957,1.6981,1.6995,1.7004,1.707,1.7029,1.7029,1.7045,1.7041,1.7059,1.706,1.7056,1.7106,1.7114,1.7144,1.7089,1.7232,1.7237,1.724,1.728,1.7288,1.7295,0,0,0,0,0,1.6943,1.6992,1.6982,1.6991,1.7034,1.7072,1.7077,1.7071,1.7048,1.7071,1.7076,1.7059,1.7136,1.7111,1.712,1.7152,1.723,1.7235,1.724,1.7276,1.7286,1.7295,0,0,0,0,0,0,1.6983,1.6994,1.6983,1.7038,1.7054,1.7066,1.7095,1.7082,1.7105,1.7101,1.7093,1.7097,1.7146,1.7154,1.7125,1.7211,1.718,1.7186,1.7204,1.7214,1.7221,1.7218,1.7092,0,0,0,0,0,1.6998,1.7027,1.7036,1.7084,1.7092,1.7093,1.7109,1.7102,1.7119,1.7125,1.7133,1.715,1.7178,1.7196,1.7223,1.7281,1.7283,1.7307,1.7315,1.7321,1.7327,1.7355,1.7366,1.7258,1.7258,1.7258,0,0,1.703,1.704,1.7059,1.7092,1.7104,1.7133,1.7098,1.7133,1.7154,1.7131,1.7175,1.7181,1.7199,1.7251,1.7275,1.7259,1.7357,1.7327,1.7332,1.7334,1.7361,1.7372,1.7381,1.7261,1.7261,1.726,0,0,1.7103,1.7114,1.7154,1.7165,1.7182,1.7182,1.7192,1.7205,1.7208,1.7252,1.7234,1.726,1.7309,1.7321,1.7334,1.7409,1.7394,1.7418,1.7458,1.7486,1.7495,1.7502,1.7527,1.7536,1.7424,1.7424,1.7424,0,1.7141,1.7185,1.7177,1.7211,1.7225,1.7204,1.7243,1.7255,1.728,1.7291,1.7273,1.7331,1.7342,1.7396,1.7413,1.7426,1.7435,1.7416,1.7494,1.7501,1.7508,1.7532,1.7541,1.7427,1.7427,1.7426,1.7426,0,1.7229,1.726,1.729,1.7313,1.7331,1.7368,1.7364,1.7384,1.7375,1.7377,1.742,1.7432,1.7459,1.7472,1.7465,1.7524,1.7513,1.7495,1.7463,1.7521,1.7543,1.7552,1.7431,1.743,1.7429,1.7428,0,0,1.7329,1.7345,1.7356,1.7365,1.7381,1.7405,1.744,1.7465,1.7481,1.7499,1.7527,1.7567,1.755,1.7564,1.7559,1.7584,1.7639,1.7562,1.7562,1.7574,1.7702,1.7714,1.7725,1.763,1.7631,1.7633,1.77,0,1.7401,1.7461,1.7453,1.7511,1.7538,1.7517,1.7548,1.7561,1.7563,1.7586,1.7588,1.7616,1.7592,1.76,1.7624,1.7627,1.7665,1.7623,1.7655,1.7656,1.765,1.7737,1.775,1.7813,1.7708,1.771,1.7711,0,1.7492,1.7511,1.7571,1.7581,1.7592,1.7619,1.764,1.7663,1.7677,1.7676,1.7691,1.7681,1.7715,1.7683,1.773,1.7702,1.7715,1.7718,1.7721,1.7722,1.7686,1.7739,1.7833,1.7842,1.7725,1.7724,1.7723,0,1.7556,1.7597,1.7637,1.7646,1.7659,1.7678,1.7684,1.7696,1.7711,1.773,1.7739,1.7762,1.7774,1.7792,1.7787,1.7765,1.7834,1.7803,1.7834,1.7834,1.7849,1.7847,1.7944,1.786,1.786,1.786,1.7859,0,1.7636,1.7673,1.7665,1.769,1.773,1.7721,1.7762,1.7766,1.7776,1.78,1.7785,1.7808,1.7801,1.7825,1.7821,1.7859,1.7866,1.7865,1.7864,1.7866,1.7866,1.7873,1.7868,1.7862,1.7862,1.7861,1.7861,0,1.7714,1.771,1.7752,1.776,1.7763,1.7792,1.7799,1.7822,1.7822,1.7853,1.786,1.786,1.7886,1.7883,1.7913,1.7911,1.7957,1.7952,1.7952,1.795,1.798,1.7977,1.8084,1.8097,1.8006,1.8007,1.8008,0,1.7764,1.7791,1.7801,1.7816,1.7823,1.7848,1.7862,1.7854,1.7869,1.7886,1.7906,1.7931,1.7949,1.7992,1.7995,1.8017,1.8011,1.8047,1.8014,1.8014,1.8008,1.8006,1.8008,1.8053,1.8054,1.8055,1.8055,0,1.7852,1.7849,1.7869,1.7889,1.7906,1.7921,1.7935,1.7948,1.7941,1.7959,1.7985,1.8,1.8029,1.8053,1.8073,1.808,1.8066,1.8066,1.8073,1.8075,1.8073,1.8072,1.7967,1.8063,1.8062,1.8062,1.8061,1.8061,1.7916,1.7939,1.7948,1.7971,1.798,1.7993,1.8014,1.8016,1.8037,1.8059,1.8053,1.8082,1.8093,1.8119,1.8127,1.8149,1.8136,1.8148,1.8151,1.8154,1.8156,1.8071,1.8153,1.8153,1.8153,1.8153,1.8153,0,1.8002,1.8007,1.8028,1.8046,1.8064,1.8049,1.8063,1.8079,1.8104,1.8115,1.8133,1.8162,1.8184,1.8188,1.8209,1.8226,1.822,1.8232,1.823,1.8231,1.8168,1.8158,1.8236,1.8236,1.8236,1.8236,1.8236,1.8236,1.8048,1.8085,1.8082,1.8122,1.8127,1.8153,1.8162,1.8174,1.8182,1.8214,1.8232,1.8234,1.8242,1.8264,1.8283,1.8284,1.8292,1.8305,1.8303,1.8244,1.8236,1.8228,1.8218,1.8308,1.8308,1.8364,1.8364,1.8365]},{"header":{"parameterUnit":"m.s-1","parameterCategory":1,"la1":30.2991,"la2":30.254,"lo1":-89.0895,"lo2":-89.0444,"dy":0.0017,"dx":0.0017,"nx":28,"ny":28,"refTime":"2025-05-23T09:00:00:Z","depth":0,"parameterNumber":3,"parameterNumberName":"V-component_of_WINDS"},"data":[0,0,0,0,0,0,0,0,0,0,0,0,0,0,0,0,0,0,0,0,0,0,0,0,0,0,0,0,0,0,0,0,0,0,0,0,0,0,0,0,0,0,0,0,0,0,0,0,0,0,0,0,0,0,0,0,0,0,5.7181,5.7182,0,5.7302,5.7303,5.7304,5.7258,5.7255,5.7252,5.725,5.7369,5.7374,5.738,0,0,0,0,0,0,0,0,0,0,0,0,0,5.6903,5.6909,5.718,5.7182,5.7184,5.7301,5.7303,5.7305,5.7258,5.7255,5.7252,5.7249,5.7367,5.7373,5.738,0,0,0,0,0,0,0,0,0,0,0,0,0,5.7024,5.691,5.718,5.7175,5.7175,5.7301,5.7303,5.7305,5.7259,5.7255,5.7251,5.7247,5.7364,5.7373,5.7381,5.7518,0,0,5.7408,5.7411,0,0,0,0,0,0,0,0,5.7017,5.7034,5.7174,5.7175,5.7176,5.7261,5.7249,5.7376,5.726,5.7227,5.725,5.7245,5.7336,5.7346,5.7378,5.7523,5.7529,5.7408,5.7414,5.7417,5.742,0,0,0,0,0,0,0,5.7009,5.7028,5.7228,5.7176,5.7178,5.7164,5.7177,5.7273,5.7303,5.723,5.7227,5.7242,5.7335,5.737,5.738,5.753,5.7408,5.7416,5.7421,5.7424,5.7792,5.7797,0,0,0,0,0,0,5.7001,5.7022,5.7224,5.7232,5.7085,5.7173,5.7187,5.7238,5.7302,5.7308,5.7245,5.7239,5.7357,5.737,5.7384,5.7548,5.7417,5.7425,5.743,5.7788,5.7793,5.7798,0,0,0,0,0,0,5.6995,5.7019,5.7219,5.7126,5.7151,5.7182,5.7239,5.7242,5.7277,5.7314,5.7318,5.7276,5.7354,5.7372,5.7485,5.7552,5.7429,5.7437,5.7782,5.7789,5.7796,5.7877,0,0,0,0,0,0,5.6987,5.7017,5.7071,5.7128,5.7156,5.732,5.7244,5.7248,5.7292,5.7286,5.7343,5.7349,5.7353,5.7473,5.7494,5.7561,5.7444,5.7776,5.7785,5.7794,5.7868,5.7886,5.79,0,0,0,0,0,5.6977,5.7088,5.7074,5.7099,5.7224,5.7324,5.734,5.7344,5.7298,5.7351,5.7375,5.7347,5.7541,5.7485,5.7508,5.7579,5.7772,5.7783,5.7793,5.7861,5.7882,5.79,0,0,0,0,0,0,5.7037,5.7096,5.7081,5.7214,5.7265,5.7316,5.7384,5.7366,5.743,5.742,5.742,5.7434,5.755,5.7575,5.7512,5.7714,5.7649,5.7665,5.7693,5.7714,5.7729,5.7721,5.7451,0,0,0,0,0,5.7066,5.7145,5.719,5.7303,5.733,5.7353,5.7396,5.7395,5.7447,5.7467,5.7499,5.7549,5.7621,5.7669,5.7737,5.7872,5.7883,5.7932,5.7948,5.7961,5.7974,5.8046,5.8068,5.7832,5.7832,5.7832,0,0,5.7126,5.7168,5.7217,5.7316,5.7355,5.7435,5.7371,5.7458,5.7516,5.748,5.7589,5.7614,5.7669,5.7794,5.785,5.7819,5.8042,5.7974,5.7984,5.799,5.8059,5.8081,5.8101,5.7839,5.7838,5.7837,0,0,5.7276,5.7316,5.7414,5.7455,5.7516,5.753,5.7553,5.7608,5.7624,5.7733,5.7708,5.7776,5.79,5.7941,5.7978,5.8142,5.8118,5.8164,5.8248,5.8318,5.8337,5.8353,5.8411,5.8432,5.8177,5.8178,5.8178,0,5.7343,5.7463,5.7466,5.7555,5.7599,5.7571,5.767,5.7708,5.7788,5.7817,5.7782,5.7937,5.7972,5.8105,5.8145,5.8176,5.8202,5.8158,5.8334,5.8351,5.8366,5.8421,5.8443,5.8183,5.8182,5.8182,5.8181,0,5.7541,5.7625,5.7696,5.7776,5.7827,5.792,5.7935,5.7987,5.798,5.7998,5.8109,5.815,5.8226,5.8258,5.8252,5.839,5.8368,5.8333,5.8268,5.8394,5.8445,5.8467,5.819,5.8188,5.8187,5.8185,0,0,5.7733,5.7812,5.7839,5.7874,5.7938,5.8002,5.8093,5.8169,5.8212,5.8267,5.8343,5.8448,5.8416,5.8458,5.8456,5.8518,5.8644,5.8475,5.8476,5.8505,5.8798,5.8823,5.8848,5.8629,5.8633,5.8636,5.8793,0,5.7888,5.805,5.8054,5.8202,5.8278,5.8252,5.8331,5.8378,5.8397,5.8462,5.8482,5.8557,5.8509,5.8534,5.8594,5.8617,5.8703,5.8605,5.8698,5.8701,5.8685,5.8875,5.8903,5.9049,5.8813,5.8817,5.8819,0,5.8091,5.8154,5.8309,5.8362,5.8394,5.8465,5.8534,5.8598,5.865,5.8659,5.8706,5.8695,5.8785,5.8718,5.8842,5.8775,5.8813,5.8829,5.8835,5.8843,5.8768,5.8889,5.9095,5.9117,5.8851,5.8849,5.8846,0,5.8214,5.8338,5.8447,5.8477,5.8542,5.8592,5.8621,5.8669,5.8714,5.8774,5.8803,5.8872,5.8909,5.8962,5.8969,5.8919,5.9094,5.9027,5.9102,5.9102,5.914,5.9138,5.9356,5.9165,5.9165,5.9164,5.9164,0,5.8387,5.8483,5.8503,5.857,5.8676,5.8679,5.8783,5.8808,5.885,5.892,5.8901,5.8967,5.8972,5.9039,5.9044,5.9146,5.9163,5.9171,5.9171,5.9173,5.9172,5.9198,5.9188,5.917,5.9169,5.9168,5.9167,0,5.8543,5.8561,5.8678,5.8729,5.8744,5.882,5.8863,5.8926,5.8942,5.903,5.9051,5.9076,5.9153,5.9166,5.9256,5.926,5.9381,5.9371,5.9364,5.9363,5.9437,5.943,5.968,5.9712,5.95,5.9502,5.9504,0,5.8652,5.8726,5.8785,5.8831,5.8863,5.8937,5.8983,5.8989,5.9037,5.9101,5.9156,5.9232,5.9293,5.9417,5.9442,5.9511,5.9502,5.9585,5.9512,5.9511,5.9503,5.9498,5.9505,5.9599,5.9601,5.9603,5.9604,0,5.8844,5.8849,5.8917,5.8988,5.9044,5.9099,5.9152,5.919,5.9202,5.9257,5.9337,5.9384,5.9477,5.9552,5.962,5.9647,5.9628,5.9627,5.9648,5.965,5.9643,5.9648,5.9402,5.9621,5.962,5.9618,5.9617,5.9617,5.898,5.9043,5.9095,5.9171,5.9211,5.9261,5.9322,5.9346,5.9414,5.9491,5.9489,5.9576,5.9624,5.9714,5.9746,5.9813,5.9786,5.9817,5.9824,5.9832,5.9839,5.9633,5.9825,5.9825,5.9824,5.9824,5.9824,0,5.917,5.9202,5.9272,5.9346,5.9406,5.9383,5.944,5.9491,5.9568,5.9616,5.9676,5.9767,5.9839,5.987,5.9941,5.9988,5.9981,6.0007,6.0003,6.0009,5.9859,5.9834,6.0011,6.0011,6.0011,6.0011,6.0011,6.0011,5.9276,5.9382,5.9393,5.9518,5.9548,5.9635,5.9669,5.9714,5.9752,5.9855,5.9916,5.9935,5.9976,6.0049,6.0114,6.0121,6.0147,6.0177,6.018,6.0039,6.002,6.0002,5.9978,6.0183,6.0183,6.0324,6.0325,6.0326]}]]